Regional Weather Roundup
Issued by NWS

Home | Current Version | Previous Version | Graphics & Text | Print | Product List | Glossary On
Versions: 1 2 3 4 5 6 7 8 9 10 11 12 13 14 15 16 17 18 19 20 21 22 23 24 25 26 27 28 29 30 31 32 33 34 35 36 37 38 39 40 41 42 43 44 45 46 47 48 49 50
000
ASUS43 KMPX 212101
RWRMN
WEATHER ROUNDUP FOR MINNESOTA
NATIONAL WEATHER SERVICE TWIN CITIES/CHANHASSEN MN
400 PM CDT THU AUG 21 2014


NOTE: "FAIR" INDICATES FEW OR NO CLOUDS BELOW 12,000 FEET WITH NO
SIGNIFICANT WEATHER AND/OR OBSTRUCTIONS TO VISIBILITY. N/A MEANS
CURRENT SKY AND/OR WEATHER CONDITIONS ARE NOT AVAILABLE.

MNZ060>063-068>070-212200-
   Twin Cities Metro

CITY           SKY/WX    TMP DP  RH WIND       PRES   REMARKS
TWIN CITIES    CLOUDY    80  73  79 N8        29.78R
ST PAUL        CLOUDY    79  72  79 E10       29.78R
CRYSTAL        CLOUDY    79  71  76 E9        29.77R
BLAINE         CLOUDY    79  73  83 E10       29.79
LAKEVILLE      PTSUNNY   84  72  65 S9        29.78S
EDEN PRAIRIE   CLOUDY    85  73  67 S8        29.76R HX  91
SOUTH ST PAUL  CLOUDY    82  72  72 CALM      29.78R
LAKE ELMO      CLOUDY    77  72  83 E6        29.81R
$$
MNZ001>005-007-008-013>017-022>024-027-028-212200-
   Northwest Minnesota

CITY           SKY/WX    TMP DP  RH WIND       PRES   REMARKS
BEMIDJI        CLOUDY    73  65  77 SE7       29.84S
HALLOCK        MOSUNNY   73  66  78 NE8       29.81S
ROSEAU         PTSUNNY   70  64  83 E13       29.85F
WARROAD        CLOUDY    66  63  88 NE9       29.87S
THIEF RVR FALL CLOUDY    73  66  78 E5        29.82R
CROOKSTON      PTSUNNY   77  66  69 W5        29.80S
FOSSTON        CLOUDY    72  64  78 CALM      29.83S
DETROIT LAKES  PTSUNNY   73  68  83 S5        29.83S
MOORHEAD       MOSUNNY   77  72  83 SE6       29.80S
PARK RAPIDS    CLOUDY    72  66  81 SE7       29.83S
MAHNOMEN       CLOUDY    75  68  80 S8        29.81S
$$
MNZ006-009>011-018-025>026-212200-
   North Central Minnesota

CITY           SKY/WX    TMP DP  RH WIND       PRES   REMARKS
BAUDETTE       CLOUDY    69  64  84 E9        29.86R
FLAG ISLAND    RAIN      66  63  88 CALM      29.88R
INTL FALLS     CLOUDY    69  62  78 SE8       29.87F
WASKISH        CLOUDY    75  66  73 CALM      29.84S
BIG FORK       MOSUNNY   75  66  73 SE5       29.86S
LONGVILLE      CLOUDY    72  66  83 E3        29.84S
GRAND RAPIDS   CLOUDY    70  63  78 SE9       29.87R
CRANE LAKE     LGT RAIN  64  63  94 CALM      29.91S
ORR            CLOUDY    70  61  73 SE3       29.86S
COOK           CLOUDY    70  63  78 E3        29.88F
WALKER         MOCLDY    74  66  77 NE7       29.83S
$$
MNZ012-019>021-037-212200-
   Northeast Minnesota

CITY           SKY/WX    TMP DP  RH WIND       PRES   REMARKS
DULUTH         CLOUDY    66  60  81 E15       29.88F
ELY            CLOUDY    64  57  77 SE9       29.92S
HIBBING        CLOUDY    73  62  68 SE12      29.88S
EVELETH        CLOUDY    70  61  73 E7        29.90S
DULUTH HARBOR  CLOUDY    63  61  94 NE20      29.88S
TWO HARBORS    CLOUDY    64  59  82 E15       29.88F
SILVER BAY     CLOUDY    63  63 100 NE6       29.90F
GRAND MARAIS     N/A     64  60  87 NE9       29.94S
G MARAIS ARPRT PTSUNNY   63  55  77 E8        29.98S
$$
MNZ029>031-032-039>041-046>048-054>057-064-212200-
   West Central Minnesota

CITY           SKY/WX    TMP DP  RH WIND       PRES   REMARKS
FERGUS FALLS   CLOUDY    75  66  73 E6        29.79S
WHEATON        MOSUNNY   77  68  73 N6        29.81R
MORRIS         SUNNY     82  70  65 N6        29.79R
ALEXANDRIA     CLOUDY    74  69  85 E8        29.83R
ELBOW LAKE     CLOUDY    77  70  78 CALM      29.80S
WADENA         RAIN      70  66  88 E8        29.83R
GLENWOOD       MOSUNNY   73  70  88 NE10      29.83R
APPLETON       MOSUNNY   84  70  61 N8        29.78R
BENSON         MOSUNNY   82  70  65 N7        29.79R
ORTONVILLE     MOSUNNY   82  72  69 NE8       29.79R
MADISON        SUNNY     88  73  62 N8        29.78R HX  96
WILLMAR        FAIR      82  70  65 N5        29.80S
$$
MNZ033>034-036-042>043-049>051-058-059-212200-
   Central Minnesota

CITY           SKY/WX    TMP DP  RH WIND       PRES   REMARKS
ST CLOUD       CLOUDY    77  71  82 E7        29.80R
SAUK CENTRE    CLOUDY    71  68  92 NE8       29.82R
PAYNESVILLE    CLOUDY    74  70  88 N6        29.81R FOG
AITKIN         CLOUDY    72  66  83 E6        29.82F
PINE RIVER     CLOUDY    72  66  83 E9        29.87S
BRAINERD       CLOUDY    70  66  87 VRB5      29.83S
STAPLES        CLOUDY    70  66  88 E5        29.83R
LONG PRAIRIE   CLOUDY    70  66  88 NE6       29.83R
LITTLE FALLS   CLOUDY    70  68  94 E3        29.82R FOG
LITCHFIELD     MOSUNNY   81  75  83 NE6       29.79S
BUFFALO        CLOUDY    76  70  80 N3        29.80R
MAPLE LAKE     CLOUDY    76  73  88 NE7       29.81R
$$
MNZ037-044-045-052-053-212200-
   East Central Minnesota

CITY           SKY/WX    TMP DP  RH WIND       PRES   REMARKS
PRINCETON      CLOUDY    75  72  88 E6        29.81R
MORA           CLOUDY    70  68  94 CALM      29.85R FOG
CAMBRIDGE      MOSUNNY   75  64  69 E5        29.80R
RUSH CITY      CLOUDY    73  69  86 E3        29.82R
MOOSE LAKE     CLOUDY    66  63  88 NE8       29.84S
HINCKLEY       CLOUDY    73  70  88 E8        29.83R
CLOQUET        CLOUDY    64  61  88 E12       29.88R
MCGREGOR       CLOUDY    68  64  88 E6        29.85F
$$
MNZ071>073-080-081-089-090-097-098-212200-
   Southwest Minnesota

CITY           SKY/WX    TMP DP  RH WIND       PRES   REMARKS
MONTEVIDEO     PTSUNNY   88  75  66 NE10      29.79R HX  97
GRANITE FALLS  MOSUNNY   84  75  73 N9        29.79R HX  91
CANBY          SUNNY     88  69  53 NW14      29.80R HX  92
MARSHALL       PTSUNNY   88  73  62 N14       29.77S HX  96
REDWOOD FALLS  MOSUNNY   88  75  65 N9        29.76S HX  97
OLIVIA         CLOUDY    82  72  69 N12       29.77S
PIPESTONE      MOSUNNY   84  72  65 NW9       29.83R
WINDOM         MOSUNNY   86  72  62 SW12G17   29.80R HX  92
WORTHINGTON    MOSUNNY   88  25  10 W9        29.83R
JACKSON        SUNNY     86  70  58 W9        29.82R HX  90
TRACY          PTSUNNY   89  76  67 NW6       29.79R HX 100
SLAYTON        MOSUNNY   89  72  56 CALM      29.82R HX  95
$$
MNZ065>067-074>077-082>085-091>093-212200-
   South Central Minnesota

CITY           SKY/WX    TMP DP  RH WIND       PRES   REMARKS
MANKATO        CLOUDY    84  70  61 SW13      29.78S
NEW ULM        MOSUNNY   86  75  70 SW7       29.76S HX  95
FAIRMONT       SUNNY     88  70  55 MISG      29.80R HX  92
GLENCOE        CLOUDY    83  74  73 CALM      29.77R HX  90
FARIBAULT      MOSUNNY   90  68  48 S8        29.80R HX  93
OWATONNA       MOSUNNY   84  72  65 S12       29.81R
WASECA         MOSUNNY   82  66  57 SW10      29.82R
ALBERT LEA     MOSUNNY   84  70  61 SW13      29.81S
$$
MNZ078>079-086>088-094>096-212200-
   Southeast Minnesota

CITY           SKY/WX    TMP DP  RH WIND       PRES   REMARKS
ROCHESTER      PTSUNNY   83  73  72 S13       29.84S
RED WING       MOSUNNY   84  72  65 S5        29.78S
STANTON        MOSUNNY   88  71  57 SW10      29.78R HX  93
DODGE CENTER   MOSUNNY   84  72  65 S14G20    29.83R
WINONA         PTSUNNY   81  72  74 E10       29.82S
AUSTIN         MOSUNNY   84  73  70 S9G17     29.82S HX  91
PRESTON        PTSUNNY   79  75  89 S13       29.86R
$$
ABBREVIATIONS USED IN REMARKS
   TC - TEMPERATURES IN CELSIUS
  WCI - WIND CHILL INDEX
   HX - HEAT INDEX
  VSB - VISIBILITY
$$


USA.gov is the U.S. government's official web portal to all federal, state and local government web resources and services.